This is the latest recevied weather packets stored in our database for station/object CE6PL-10. If no packets are shown the sender has not sent any weather packets the latest 10 day(s).
| Time | Temp. | Humidity | Pressure | Rain* | Wind** | Luminosity | Snow |
|---|---|---|---|---|---|---|---|
| 1787753841 | 11.11° C | 95% | 1006.7 hPa | - | - | - | - |
| 1787752940 | 10° C | 100% | 1006.8 hPa | - | - | - | - |
| 1787752040 | 9.44° C | 100% | 1007 hPa | - | - | - | - |
| 1787751140 | 8.89° C | 100% | 1007 hPa | - | - | - | - |
| 1787750240 | 8.89° C | 100% | 1007.1 hPa | - | - | - | - |
| 1787749340 | 7.78° C | 100% | 1007 hPa | - | - | - | - |
| 1787748439 | 7.22° C | 100% | 1007 hPa | - | - | - | - |
| 1787747539 | 7.22° C | 100% | 1006.4 hPa | - | - | - | - |
| 1787746639 | 7.22° C | 100% | 1006.4 hPa | - | - | - | - |
| 1787745739 | 7.78° C | 100% | 1006.4 hPa | - | - | - | - |
| 1787744839 | 7.22° C | 100% | 1006.1 hPa | - | - | - | - |
| 1787743939 | 7.22° C | 100% | 1005.8 hPa | - | - | - | - |
| 1787743038 | 7.78° C | 100% | 1005.6 hPa | - | - | - | - |
| 1787742138 | 7.78° C | 100% | 1005.7 hPa | - | - | - | - |
| 1787741238 | 7.78° C | 100% | 1005.2 hPa | - | - | - | - |
| 1787740338 | 8.33° C | 100% | 1005.1 hPa | - | - | - | - |
| 1787739438 | 8.33° C | 100% | 1004.7 hPa | - | - | - | - |
| 1787738538 | 8.33° C | 100% | 1004.3 hPa | - | - | - | - |
| 1787737637 | 8.33° C | 100% | 1004 hPa | - | - | - | - |
| 1787736737 | 8.33° C | 100% | 1003.9 hPa | - | - | - | - |
| 1787735837 | 8.89° C | 100% | 1004.2 hPa | - | - | - | - |
| 1787734937 | 8.33° C | 100% | 1004.2 hPa | - | - | - | - |
| 1787734037 | 7.78° C | 100% | 1004 hPa | - | - | - | - |
| 1787733137 | 7.78° C | 100% | 1004 hPa | - | - | - | - |
| 1787732236 | 7.78° C | 100% | 1003.9 hPa | - | - | - | - |
* Rain since midnight (hover to see other rain measurements)
** Current wind speed in m/s (hover to see current wind gust speed)